RYR3SE LEMG-GCRR

Flight info

Callsign RYR3SE
Flight time 1h 54m
Altitude 37000
Route PIMOS N869 GALTO UN869 PELAX UB11 MABAP UN869 ADM UG850 DEVLA
Aircraft B738/M-SDE3FGILRWY/SB1

Departure

Time 2026-05-07 12:10
Airport Málaga-Costa del Sol Airport (LEMG)

Arrival

Time 2026-05-07 14:05
Airport César Manrique-Lanzarote Airport (GCRR)
Time Latitude Longitude Altitude Speed Heading
2026-05-07 11:35 36.67458 -4.49210 39 ft 0 kts 330°
2026-05-07 12:01 36.67458 -4.49209 41 ft 2 kts 330°
2026-05-07 12:01 36.67437 -4.49197 41 ft 4 kts 342°
2026-05-07 12:02 36.67414 -4.49190 41 ft 4 kts 357°
2026-05-07 12:02 36.67390 -4.49192 40 ft 4 kts 13°
2026-05-07 12:02 36.67367 -4.49201 38 ft 4 kts 25°
2026-05-07 12:02 36.67345 -4.49215 38 ft 4 kts 24°
2026-05-07 12:03 36.67331 -4.49221 38 ft 4 kts 359°
2026-05-07 12:03 36.67322 -4.49220 40 ft 0 kts 310°
2026-05-07 12:05 36.67338 -4.49248 40 ft 4 kts 302°
2026-05-07 12:05 36.67349 -4.49288 41 ft 7 kts 278°
2026-05-07 12:05 36.67324 -4.49365 41 ft 10 kts 269°
2026-05-07 12:06 36.67361 -4.49433 42 ft 10 kts 312°
2026-05-07 12:06 36.67428 -4.49527 41 ft 21 kts 311°
2026-05-07 12:06 36.67532 -4.49673 42 ft 23 kts 311°
2026-05-07 12:06 36.67635 -4.49817 42 ft 22 kts 311°
2026-05-07 12:07 36.67735 -4.49957 42 ft 21 kts 311°
2026-05-07 12:07 36.67832 -4.50094 43 ft 21 kts 311°
2026-05-07 12:07 36.67927 -4.50226 44 ft 20 kts 311°
2026-05-07 12:07 36.68018 -4.50354 43 ft 20 kts 311°
2026-05-07 12:08 36.68115 -4.50490 43 ft 23 kts 311°
2026-05-07 12:08 36.68227 -4.50648 44 ft 24 kts 311°
2026-05-07 12:08 36.68336 -4.50800 47 ft 23 kts 311°
2026-05-07 12:08 36.68441 -4.50946 50 ft 22 kts 311°
2026-05-07 12:09 36.68503 -4.51051 53 ft 11 kts 282°
2026-05-07 12:09 36.68464 -4.51124 55 ft 11 kts 193°
2026-05-07 12:09 36.68399 -4.51141 60 ft 8 kts 192°
2026-05-07 12:09 36.68351 -4.51114 57 ft 8 kts 131°
2026-05-07 12:10 36.68237 -4.50955 54 ft 59 kts 131°
2026-05-07 12:10 36.67789 -4.50328 53 ft 131 kts 131°
2026-05-07 12:10 36.67063 -4.49307 280 ft 171 kts 132°
2026-05-07 12:10 36.66277 -4.48190 1218 ft 173 kts 130°
2026-05-07 12:11 36.65472 -4.46994 1977 ft 187 kts 131°
2026-05-07 12:11 36.64534 -4.45673 2332 ft 218 kts 133°
2026-05-07 12:11 36.63477 -4.44219 2806 ft 232 kts 137°
2026-05-07 12:11 36.62072 -4.43283 3456 ft 232 kts 175°
2026-05-07 12:12 36.60499 -4.43434 4279 ft 231 kts 195°
2026-05-07 12:12 36.58958 -4.43975 5220 ft 230 kts 198°
2026-05-07 12:12 36.57428 -4.44556 6148 ft 230 kts 197°
2026-05-07 12:12 36.55886 -4.45134 6967 ft 233 kts 197°
2026-05-07 12:13 36.54328 -4.45711 7778 ft 236 kts 199°
2026-05-07 12:13 36.52878 -4.46677 8449 ft 245 kts 220°
2026-05-07 12:13 36.51538 -4.48168 8808 ft 268 kts 223°
2026-05-07 12:13 36.50147 -4.49762 9588 ft 275 kts 224°
2026-05-07 12:14 36.48734 -4.51382 10386 ft 281 kts 224°
2026-05-07 12:14 36.47256 -4.53073 10639 ft 306 kts 224°
2026-05-07 12:14 36.45633 -4.54921 11032 ft 323 kts 223°
2026-05-07 12:14 36.43956 -4.56823 11759 ft 329 kts 223°
2026-05-07 12:15 36.42253 -4.58747 12574 ft 333 kts 224°
2026-05-07 12:15 36.40531 -4.60688 13382 ft 336 kts 224°
2026-05-07 12:15 36.38790 -4.62649 14171 ft 339 kts 225°
2026-05-07 12:15 36.37036 -4.64622 14913 ft 342 kts 225°
2026-05-07 12:16 36.35269 -4.66608 15650 ft 345 kts 226°
2026-05-07 12:16 36.33460 -4.68640 16397 ft 347 kts 226°
2026-05-07 12:16 36.31687 -4.70631 17112 ft 351 kts 226°
2026-05-07 12:16 36.29869 -4.72671 17834 ft 354 kts 227°
2026-05-07 12:17 36.28038 -4.74723 18498 ft 357 kts 227°
2026-05-07 12:17 36.26188 -4.76796 19113 ft 359 kts 228°
2026-05-07 12:17 36.24326 -4.78881 19731 ft 362 kts 228°
2026-05-07 12:17 36.22450 -4.80980 20338 ft 365 kts 228°
2026-05-07 12:18 36.20561 -4.83092 20933 ft 368 kts 229°
2026-05-07 12:18 36.18655 -4.85222 21517 ft 371 kts 229°
2026-05-07 12:18 36.16733 -4.87368 22084 ft 374 kts 229°
2026-05-07 12:18 36.14782 -4.89517 22626 ft 379 kts 227°
2026-05-07 12:19 36.12630 -4.91458 23165 ft 387 kts 221°
2026-05-07 12:19 36.10345 -4.93255 23669 ft 392 kts 219°
2026-05-07 12:19 36.08011 -4.95023 24106 ft 395 kts 219°
2026-05-07 12:19 36.05662 -4.96808 24544 ft 397 kts 219°
2026-05-07 12:20 36.03310 -4.98620 25007 ft 399 kts 219°
2026-05-07 12:20 36.00954 -5.00460 25425 ft 402 kts 220°
2026-05-07 12:20 35.98585 -5.02326 25828 ft 406 kts 220°
2026-05-07 12:20 35.96199 -5.04212 26233 ft 409 kts 220°
2026-05-07 12:21 35.93800 -5.06110 26638 ft 411 kts 220°
2026-05-07 12:21 35.91380 -5.08024 27037 ft 414 kts 220°
2026-05-07 12:21 35.88947 -5.09947 27424 ft 417 kts 220°
2026-05-07 12:21 35.86493 -5.11884 27807 ft 420 kts 220°
2026-05-07 12:22 35.84023 -5.13832 28155 ft 423 kts 220°
2026-05-07 12:22 35.81592 -5.15872 28531 ft 423 kts 223°
2026-05-07 12:22 35.79219 -5.18021 28892 ft 424 kts 224°
2026-05-07 12:22 35.76862 -5.20217 29246 ft 427 kts 225°
2026-05-07 12:23 35.74523 -5.22411 29588 ft 429 kts 225°
2026-05-07 12:23 35.72139 -5.24641 29932 ft 432 kts 225°
2026-05-07 12:23 35.69737 -5.26877 30220 ft 434 kts 225°
2026-05-07 12:23 35.67320 -5.29115 30529 ft 436 kts 224°
2026-05-07 12:24 35.64896 -5.31348 30879 ft 435 kts 224°
2026-05-07 12:24 35.62476 -5.33569 31313 ft 432 kts 224°
2026-05-07 12:24 35.60082 -5.35759 31878 ft 426 kts 224°
2026-05-07 12:24 35.57714 -5.37924 32380 ft 422 kts 225°
2026-05-07 12:25 35.55361 -5.40080 32709 ft 423 kts 225°
2026-05-07 12:25 35.53000 -5.42243 33021 ft 423 kts 225°
2026-05-07 12:25 35.50645 -5.44399 33434 ft 422 kts 225°
2026-05-07 12:25 35.48297 -5.46544 33891 ft 419 kts 225°
2026-05-07 12:26 35.45960 -5.48677 34240 ft 418 kts 225°
2026-05-07 12:26 35.43629 -5.50805 34554 ft 417 kts 225°
2026-05-07 12:26 35.41303 -5.52926 34866 ft 417 kts 225°
2026-05-07 12:26 35.38978 -5.55046 35164 ft 416 kts 224°
2026-05-07 12:27 35.36659 -5.57158 35395 ft 416 kts 224°
2026-05-07 12:27 35.34337 -5.59271 35644 ft 416 kts 224°
2026-05-07 12:27 35.32014 -5.61385 35934 ft 416 kts 224°
2026-05-07 12:27 35.29693 -5.63493 36247 ft 415 kts 224°
2026-05-07 12:28 35.27376 -5.65597 36517 ft 414 kts 224°
2026-05-07 12:28 35.25063 -5.67695 36804 ft 413 kts 224°
2026-05-07 12:28 35.22756 -5.69786 36962 ft 415 kts 223°
2026-05-07 12:29 35.18062 -5.74045 36966 ft 424 kts 223°
2026-05-07 12:29 35.13303 -5.78354 36970 ft 433 kts 223°
2026-05-07 12:30 35.08438 -5.82744 36944 ft 435 kts 223°
2026-05-07 12:30 35.03563 -5.87134 36954 ft 436 kts 223°
2026-05-07 12:31 34.98684 -5.91523 36965 ft 436 kts 223°
2026-05-07 12:31 34.93797 -5.95914 36948 ft 436 kts 223°
2026-05-07 12:32 34.88919 -6.00291 36959 ft 435 kts 223°
2026-05-07 12:32 34.84052 -6.04653 36933 ft 435 kts 223°
2026-05-07 12:33 34.76741 -6.11192 36949 ft 435 kts 222°
2026-05-07 12:33 34.71874 -6.15538 36959 ft 435 kts 222°
2026-05-07 12:34 34.66990 -6.19891 36958 ft 435 kts 222°
2026-05-07 12:34 34.62107 -6.24237 36962 ft 435 kts 222°
2026-05-07 12:35 34.57223 -6.28578 36921 ft 435 kts 222°
2026-05-07 12:35 34.52337 -6.32915 36947 ft 435 kts 222°
2026-05-07 12:36 34.47450 -6.37245 36955 ft 435 kts 222°
2026-05-07 12:36 34.42555 -6.41576 36953 ft 436 kts 222°
2026-05-07 12:37 34.37662 -6.45900 36957 ft 436 kts 222°
2026-05-07 12:37 34.32764 -6.50220 36959 ft 436 kts 221°
2026-05-07 12:38 34.27864 -6.54536 36946 ft 435 kts 221°
2026-05-07 12:38 34.22970 -6.58841 36942 ft 435 kts 221°
2026-05-07 12:39 34.18075 -6.63142 36944 ft 435 kts 221°
2026-05-07 12:39 34.13177 -6.67438 36943 ft 435 kts 221°
2026-05-07 12:40 34.08277 -6.71732 36939 ft 435 kts 221°
2026-05-07 12:40 34.03357 -6.76005 36937 ft 436 kts 220°
2026-05-07 12:41 33.98348 -6.80137 36931 ft 437 kts 219°
2026-05-07 12:41 33.93314 -6.84235 36948 ft 437 kts 219°
2026-05-07 12:42 33.88324 -6.88313 36949 ft 436 kts 219°
2026-05-07 12:42 33.83309 -6.92421 36960 ft 436 kts 219°
2026-05-07 12:43 33.78292 -6.96530 36958 ft 436 kts 219°
2026-05-07 12:43 33.73280 -7.00630 36958 ft 435 kts 219°
2026-05-07 12:44 33.68268 -7.04722 36959 ft 436 kts 219°
2026-05-07 12:44 33.63255 -7.08811 36971 ft 436 kts 219°
2026-05-07 12:45 33.58239 -7.12894 36967 ft 436 kts 219°
2026-05-07 12:45 33.53218 -7.16977 36967 ft 436 kts 219°
2026-05-07 12:46 33.48197 -7.21054 36971 ft 436 kts 219°
2026-05-07 12:46 33.43174 -7.25126 36964 ft 436 kts 218°
2026-05-07 12:47 33.38154 -7.29191 36967 ft 435 kts 218°
2026-05-07 12:47 33.33136 -7.33247 36973 ft 435 kts 218°
2026-05-07 12:48 33.28121 -7.37297 36972 ft 435 kts 218°
2026-05-07 12:48 33.23098 -7.41347 36964 ft 435 kts 218°
2026-05-07 12:49 33.18075 -7.45392 36973 ft 435 kts 218°
2026-05-07 12:49 33.13901 -7.48750 36963 ft 435 kts 218°
2026-05-07 12:50 33.08806 -7.52670 36969 ft 437 kts 216°
2026-05-07 12:50 33.03545 -7.56326 36961 ft 438 kts 214°
2026-05-07 12:51 32.98280 -7.59971 36959 ft 438 kts 215°
2026-05-07 12:51 32.93037 -7.63643 36968 ft 437 kts 215°
2026-05-07 12:52 32.87800 -7.67317 36954 ft 437 kts 215°
2026-05-07 12:52 32.82567 -7.70990 36959 ft 437 kts 215°
2026-05-07 12:53 32.77345 -7.74680 36961 ft 437 kts 215°
2026-05-07 12:53 32.72119 -7.78369 36960 ft 437 kts 215°
2026-05-07 12:54 32.66888 -7.82048 36956 ft 437 kts 215°
2026-05-07 12:54 32.61644 -7.85696 36948 ft 437 kts 214°
2026-05-07 12:55 32.56393 -7.89335 36952 ft 437 kts 214°
2026-05-07 12:55 32.51142 -7.92974 36950 ft 438 kts 214°
2026-05-07 12:56 32.45884 -7.96616 36952 ft 438 kts 214°
2026-05-07 12:56 32.40621 -8.00257 36950 ft 438 kts 214°
2026-05-07 12:57 32.35389 -8.03871 36921 ft 438 kts 214°
2026-05-07 12:57 32.30127 -8.07502 36946 ft 438 kts 214°
2026-05-07 12:58 32.24855 -8.11135 36946 ft 439 kts 214°
2026-05-07 12:58 32.19578 -8.14766 36946 ft 439 kts 214°
2026-05-07 12:59 32.14294 -8.18398 36948 ft 439 kts 214°
2026-05-07 12:59 32.08998 -8.22007 36941 ft 440 kts 214°
2026-05-07 13:00 32.03679 -8.25572 36934 ft 440 kts 213°
2026-05-07 13:00 31.98355 -8.29132 36945 ft 440 kts 213°
2026-05-07 13:01 31.93033 -8.32694 36933 ft 440 kts 213°
2026-05-07 13:01 31.87711 -8.36255 36944 ft 440 kts 213°
2026-05-07 13:02 31.82379 -8.39819 36940 ft 441 kts 213°
2026-05-07 13:02 31.77048 -8.43378 36934 ft 440 kts 213°
2026-05-07 13:03 31.71718 -8.46930 36937 ft 441 kts 213°
2026-05-07 13:03 31.66385 -8.50480 36936 ft 440 kts 213°
2026-05-07 13:04 31.61054 -8.54024 36937 ft 440 kts 213°
2026-05-07 13:04 31.55722 -8.57564 36935 ft 440 kts 213°
2026-05-07 13:05 31.50388 -8.61101 36908 ft 440 kts 213°
2026-05-07 13:05 31.45057 -8.64631 36926 ft 440 kts 213°
2026-05-07 13:06 31.39724 -8.68158 36940 ft 441 kts 213°
2026-05-07 13:06 31.34381 -8.71686 36939 ft 441 kts 213°
2026-05-07 13:07 31.29036 -8.75211 36938 ft 441 kts 213°
2026-05-07 13:07 31.23694 -8.78730 36930 ft 441 kts 213°
2026-05-07 13:08 31.18348 -8.82246 36924 ft 440 kts 213°
2026-05-07 13:08 31.13045 -8.85731 36929 ft 440 kts 213°
2026-05-07 13:09 31.07704 -8.89235 36921 ft 441 kts 213°
2026-05-07 13:09 31.02358 -8.92738 36924 ft 440 kts 213°
2026-05-07 13:10 30.97017 -8.96233 36914 ft 441 kts 213°
2026-05-07 13:10 30.91667 -8.99730 36898 ft 441 kts 213°
2026-05-07 13:11 30.86327 -9.03215 36898 ft 440 kts 213°
2026-05-07 13:11 30.80992 -9.06693 36905 ft 439 kts 213°
2026-05-07 13:12 30.75660 -9.10164 36903 ft 439 kts 213°
2026-05-07 13:12 30.70333 -9.13628 36896 ft 439 kts 213°
2026-05-07 13:13 30.65005 -9.17088 36902 ft 439 kts 213°
2026-05-07 13:13 30.59732 -9.20636 36878 ft 435 kts 221°
2026-05-07 13:14 30.57560 -9.23023 36902 ft 428 kts 233°
2026-05-07 13:14 30.55853 -9.25835 36900 ft 425 kts 242°
2026-05-07 13:14 30.53479 -9.32082 36895 ft 423 kts 249°
2026-05-07 13:15 30.51246 -9.38400 36895 ft 423 kts 249°
2026-05-07 13:15 30.48984 -9.44714 36894 ft 424 kts 249°
2026-05-07 13:16 30.46717 -9.50980 36884 ft 425 kts 249°
2026-05-07 13:16 30.44409 -9.57327 36899 ft 425 kts 249°
2026-05-07 13:17 30.42109 -9.63636 36898 ft 425 kts 249°
2026-05-07 13:17 30.39821 -9.69904 36920 ft 425 kts 249°
2026-05-07 13:18 30.37516 -9.76209 36927 ft 425 kts 249°
2026-05-07 13:18 30.35207 -9.82512 36936 ft 425 kts 249°
2026-05-07 13:19 30.32896 -9.88809 36953 ft 425 kts 249°
2026-05-07 13:19 30.30581 -9.95109 36956 ft 425 kts 249°
2026-05-07 13:20 30.28263 -10.01404 36968 ft 425 kts 249°
2026-05-07 13:20 30.25941 -10.07697 36967 ft 425 kts 249°
2026-05-07 13:21 30.23615 -10.13991 36973 ft 425 kts 249°
2026-05-07 13:21 30.21287 -10.20281 36973 ft 425 kts 249°
2026-05-07 13:22 30.18955 -10.26568 36975 ft 425 kts 249°
2026-05-07 13:22 30.16623 -10.32845 36977 ft 425 kts 249°
2026-05-07 13:23 30.14289 -10.39118 36978 ft 425 kts 249°
2026-05-07 13:23 30.11952 -10.45386 36981 ft 425 kts 249°
2026-05-07 13:24 30.09614 -10.51645 36980 ft 425 kts 249°
2026-05-07 13:24 30.07271 -10.57909 36982 ft 425 kts 249°
2026-05-07 13:25 30.04929 -10.64158 36985 ft 424 kts 249°
2026-05-07 13:25 30.02586 -10.70399 36986 ft 423 kts 249°
2026-05-07 13:26 30.00243 -10.76629 36986 ft 423 kts 249°
2026-05-07 13:26 29.97899 -10.82853 36986 ft 423 kts 249°
2026-05-07 13:27 29.95553 -10.89070 36994 ft 423 kts 249°
2026-05-07 13:27 29.93204 -10.95283 36987 ft 422 kts 249°
2026-05-07 13:28 29.90854 -11.01491 36989 ft 422 kts 249°
2026-05-07 13:28 29.88518 -11.07649 37000 ft 423 kts 249°
2026-05-07 13:29 29.86160 -11.13855 36990 ft 423 kts 249°
2026-05-07 13:29 29.83799 -11.20061 36991 ft 423 kts 249°
2026-05-07 13:30 29.81437 -11.26256 37000 ft 423 kts 249°
2026-05-07 13:30 29.79069 -11.32455 37004 ft 423 kts 249°
2026-05-07 13:31 29.76702 -11.38644 37007 ft 422 kts 249°
2026-05-07 13:31 29.74333 -11.44825 36996 ft 422 kts 249°
2026-05-07 13:32 29.71966 -11.50994 36995 ft 421 kts 249°
2026-05-07 13:32 29.69596 -11.57157 36998 ft 421 kts 249°
2026-05-07 13:33 29.67226 -11.63312 37011 ft 421 kts 249°
2026-05-07 13:33 29.64847 -11.69482 36564 ft 427 kts 249°
2026-05-07 13:34 29.63650 -11.72582 36053 ft 422 kts 249°
2026-05-07 13:34 29.61269 -11.78735 34747 ft 422 kts 249°
2026-05-07 13:34 29.60074 -11.81822 34067 ft 423 kts 249°
2026-05-07 13:35 29.58876 -11.84913 33328 ft 423 kts 248°
2026-05-07 13:35 29.57687 -11.87978 32800 ft 418 kts 248°
2026-05-07 13:35 29.56506 -11.91018 32310 ft 414 kts 248°
2026-05-07 13:35 29.55341 -11.94015 31821 ft 409 kts 248°
2026-05-07 13:36 29.54185 -11.96989 31342 ft 406 kts 248°
2026-05-07 13:36 29.53040 -11.99930 30867 ft 402 kts 248°
2026-05-07 13:36 29.52287 -12.01866 30556 ft 400 kts 248°
2026-05-07 13:36 29.51157 -12.04766 30101 ft 397 kts 248°
2026-05-07 13:37 29.50035 -12.07643 29549 ft 393 kts 247°
2026-05-07 13:37 29.48922 -12.10497 29019 ft 390 kts 247°
2026-05-07 13:37 29.47820 -12.13320 28535 ft 385 kts 247°
2026-05-07 13:37 29.46377 -12.17011 27889 ft 380 kts 247°
2026-05-07 13:38 29.45648 -12.18875 27575 ft 378 kts 247°
2026-05-07 13:38 29.44577 -12.21610 27101 ft 374 kts 247°
2026-05-07 13:38 29.43515 -12.24323 26634 ft 371 kts 246°
2026-05-07 13:38 29.42465 -12.27004 26170 ft 367 kts 246°
2026-05-07 13:39 29.41418 -12.29671 25716 ft 365 kts 246°
2026-05-07 13:39 29.40379 -12.32319 25266 ft 368 kts 246°
2026-05-07 13:39 29.39300 -12.35070 24803 ft 386 kts 246°
2026-05-07 13:39 29.38190 -12.37896 24298 ft 389 kts 246°
2026-05-07 13:40 29.37094 -12.40681 23792 ft 387 kts 246°
2026-05-07 13:40 29.35981 -12.43509 23225 ft 382 kts 246°
2026-05-07 13:40 29.34906 -12.46235 22712 ft 378 kts 246°
2026-05-07 13:40 29.33831 -12.48961 22205 ft 373 kts 246°
2026-05-07 13:41 29.32769 -12.51654 21721 ft 369 kts 245°
2026-05-07 13:41 29.31715 -12.54323 21246 ft 366 kts 245°
2026-05-07 13:41 29.30673 -12.56963 20776 ft 363 kts 245°
2026-05-07 13:41 29.29634 -12.59590 20307 ft 361 kts 245°
2026-05-07 13:42 29.28601 -12.62203 19850 ft 359 kts 245°
2026-05-07 13:42 29.27571 -12.64806 19394 ft 358 kts 245°
2026-05-07 13:42 29.26543 -12.67402 18936 ft 357 kts 245°
2026-05-07 13:42 29.25518 -12.69987 18486 ft 355 kts 245°
2026-05-07 13:43 29.24502 -12.72536 18073 ft 349 kts 244°
2026-05-07 13:43 29.23437 -12.75012 17553 ft 345 kts 243°
2026-05-07 13:43 29.22343 -12.77449 17043 ft 342 kts 242°
2026-05-07 13:43 29.21255 -12.79854 16545 ft 340 kts 242°
2026-05-07 13:44 29.20174 -12.82248 16040 ft 337 kts 243°
2026-05-07 13:44 29.19104 -12.84632 15558 ft 336 kts 243°
2026-05-07 13:44 29.18043 -12.87004 15085 ft 334 kts 243°
2026-05-07 13:44 29.16986 -12.89372 14599 ft 334 kts 243°
2026-05-07 13:45 29.15932 -12.91735 14100 ft 334 kts 243°
2026-05-07 13:45 29.14878 -12.94098 13583 ft 334 kts 243°
2026-05-07 13:45 29.13823 -12.96462 13069 ft 333 kts 243°
2026-05-07 13:45 29.12774 -12.98814 12573 ft 331 kts 243°
2026-05-07 13:46 29.11729 -13.01155 12099 ft 330 kts 243°
2026-05-07 13:46 29.10688 -13.03483 11613 ft 328 kts 243°
2026-05-07 13:46 29.09650 -13.05803 11159 ft 327 kts 243°
2026-05-07 13:46 29.08622 -13.08099 10907 ft 319 kts 243°
2026-05-07 13:47 29.07627 -13.10315 10759 ft 309 kts 243°
2026-05-07 13:47 29.06662 -13.12464 10615 ft 299 kts 243°
2026-05-07 13:47 29.05729 -13.14544 10480 ft 289 kts 243°
2026-05-07 13:47 29.04825 -13.16556 10362 ft 280 kts 243°
2026-05-07 13:48 29.03948 -13.18509 10244 ft 272 kts 243°
2026-05-07 13:48 29.03097 -13.20403 10131 ft 264 kts 243°
2026-05-07 13:48 29.02281 -13.22219 10026 ft 257 kts 243°
2026-05-07 13:48 29.01466 -13.24031 9761 ft 256 kts 243°
2026-05-07 13:49 29.00654 -13.25835 9483 ft 255 kts 243°
2026-05-07 13:49 28.99845 -13.27631 9207 ft 254 kts 244°
2026-05-07 13:49 28.99039 -13.29420 8945 ft 253 kts 244°
2026-05-07 13:49 28.98056 -13.31070 8634 ft 255 kts 223°
2026-05-07 13:50 28.96545 -13.32119 8428 ft 255 kts 205°
2026-05-07 13:50 28.94893 -13.32780 8326 ft 249 kts 201°
2026-05-07 13:50 28.93267 -13.33368 8194 ft 242 kts 201°
2026-05-07 13:50 28.91682 -13.33946 8085 ft 235 kts 201°
2026-05-07 13:51 28.90085 -13.34194 7956 ft 235 kts 173°
2026-05-07 13:51 28.88546 -13.33617 7979 ft 234 kts 159°
2026-05-07 13:51 28.87039 -13.32774 8011 ft 250 kts 156°
2026-05-07 13:51 28.85454 -13.31854 8024 ft 260 kts 156°
2026-05-07 13:52 28.83833 -13.30920 8026 ft 262 kts 157°
2026-05-07 13:52 28.82210 -13.29997 8010 ft 260 kts 157°
2026-05-07 13:52 28.80594 -13.29085 8003 ft 258 kts 157°
2026-05-07 13:52 28.78987 -13.28184 7999 ft 257 kts 159°
2026-05-07 13:53 28.77289 -13.27746 7970 ft 248 kts 186°
2026-05-07 13:53 28.75584 -13.27859 7992 ft 245 kts 187°
2026-05-07 13:53 28.73879 -13.27960 7991 ft 245 kts 186°
2026-05-07 13:53 28.72172 -13.28054 7989 ft 246 kts 186°
2026-05-07 13:54 28.70462 -13.28146 7993 ft 246 kts 186°
2026-05-07 13:54 28.68754 -13.28251 7994 ft 245 kts 191°
2026-05-07 13:54 28.67205 -13.28941 7812 ft 236 kts 224°
2026-05-07 13:54 28.66298 -13.30356 7795 ft 220 kts 250°
2026-05-07 13:55 28.65999 -13.32046 7694 ft 222 kts 271°
2026-05-07 13:55 28.66263 -13.33837 7512 ft 231 kts 284°
2026-05-07 13:55 28.66729 -13.35592 7325 ft 238 kts 287°
2026-05-07 13:55 28.67237 -13.37395 7104 ft 239 kts 287°
2026-05-07 13:56 28.67742 -13.39189 6888 ft 237 kts 287°
2026-05-07 13:56 28.68238 -13.40967 6659 ft 235 kts 287°
2026-05-07 13:56 28.68724 -13.42728 6445 ft 232 kts 287°
2026-05-07 13:56 28.69204 -13.44478 6215 ft 230 kts 287°
2026-05-07 13:57 28.69678 -13.46213 5985 ft 228 kts 287°
2026-05-07 13:57 28.70145 -13.47929 5774 ft 226 kts 287°
2026-05-07 13:57 28.70607 -13.49630 5563 ft 224 kts 288°
2026-05-07 13:57 28.71065 -13.51322 5364 ft 223 kts 288°
2026-05-07 13:58 28.71519 -13.53004 5172 ft 223 kts 288°
2026-05-07 13:58 28.71976 -13.54694 4967 ft 223 kts 288°
2026-05-07 13:58 28.72433 -13.56385 4769 ft 224 kts 289°
2026-05-07 13:58 28.72891 -13.58085 4561 ft 225 kts 289°
2026-05-07 13:59 28.73349 -13.59796 4341 ft 227 kts 289°
2026-05-07 13:59 28.73808 -13.61517 4145 ft 227 kts 289°
2026-05-07 13:59 28.74270 -13.63248 3925 ft 229 kts 288°
2026-05-07 13:59 28.74731 -13.64975 3715 ft 227 kts 288°
2026-05-07 14:00 28.75240 -13.66663 3495 ft 223 kts 301°
2026-05-07 14:00 28.76310 -13.67881 3318 ft 216 kts 327°
2026-05-07 14:00 28.77537 -13.68816 3144 ft 208 kts 327°
2026-05-07 14:00 28.78831 -13.69423 2924 ft 200 kts 358°
2026-05-07 14:01 28.80106 -13.68945 2788 ft 192 kts 29°
2026-05-07 14:01 28.81252 -13.68235 2596 ft 184 kts 23°
2026-05-07 14:01 28.82386 -13.67601 2436 ft 178 kts 24°
2026-05-07 14:01 28.83485 -13.66969 2216 ft 176 kts 24°
2026-05-07 14:02 28.84559 -13.66343 2006 ft 171 kts 24°
2026-05-07 14:02 28.85614 -13.65728 1763 ft 169 kts 25°
2026-05-07 14:02 28.86644 -13.65127 1547 ft 164 kts 25°
2026-05-07 14:02 28.87639 -13.64547 1351 ft 157 kts 25°
2026-05-07 14:03 28.88559 -13.64011 1180 ft 138 kts 27°
2026-05-07 14:03 28.89366 -13.63539 968 ft 128 kts 32°
2026-05-07 14:03 28.90169 -13.63048 849 ft 133 kts 31°
2026-05-07 14:03 28.91006 -13.62570 633 ft 137 kts 30°
2026-05-07 14:04 28.91859 -13.62084 433 ft 136 kts 32°
2026-05-07 14:04 28.92704 -13.61606 266 ft 128 kts 36°
2026-05-07 14:04 28.93513 -13.61121 51 ft 135 kts 31°
2026-05-07 14:04 28.94324 -13.60646 29 ft 114 kts 35°
2026-05-07 14:05 28.94840 -13.60353 38 ft 51 kts 26°
2026-05-07 14:05 28.95059 -13.60235 42 ft 25 kts 18°
2026-05-07 14:05 28.95223 -13.60208 41 ft 23 kts
2026-05-07 14:05 28.95313 -13.60224 42 ft 10 kts 321°
2026-05-07 14:06 28.95301 -13.60290 41 ft 10 kts 209°
2026-05-07 14:06 28.95228 -13.60333 41 ft 17 kts 207°
2026-05-07 14:06 28.95104 -13.60407 39 ft 21 kts 207°
2026-05-07 14:06 28.94977 -13.60482 38 ft 20 kts 206°
2026-05-07 14:07 28.94854 -13.60550 35 ft 20 kts 205°
2026-05-07 14:07 28.94753 -13.60611 34 ft 14 kts 208°
2026-05-07 14:07 28.94743 -13.60692 32 ft 11 kts 314°
2026-05-07 14:07 28.94804 -13.60711 34 ft 8 kts 10°
2026-05-07 14:08 28.94845 -13.60692 35 ft 5 kts 25°
2026-05-07 14:08 28.94869 -13.60679 35 ft 3 kts 25°
2026-05-07 14:08 28.94902 -13.60670 34 ft 7 kts 347°
2026-05-07 14:08 28.94933 -13.60705 36 ft 6 kts 298°
2026-05-07 14:09 28.94953 -13.60749 36 ft 6 kts 297°
2026-05-07 14:09 28.94965 -13.60775 36 ft 2 kts 296°
2026-05-07 14:09 28.94966 -13.60779 36 ft 0 kts 296°